Вернуться в каталог

CZ-12 R/B

АктивенLEO
NORAD 62187·ROCKET BODY·🇨🇳 China

Запущен Nov 30, 2024 с Wenchang Space Launch Site

Loading…

Ближайшие Пролёты (ближайшие 24 часа)

TLE

СвежийSource: Space-Track

Эпоха: Sep 14, 2026, 23:22 UTC

1 62187U 24226C   26257.97385395 -.00000134  00000-0  70081-5 0  9991
2 62187  50.0004 227.0269 0061030  41.3594 319.1896 13.73634381 89811

Отслеживайте CZ-12 R/B в реальном времени с AllMySat

Download on the App Store